TimeEDT,TemperatureF,Dew PointF,Humidity,Sea Level PressureIn,VisibilityMPH,Wind Direction,Wind SpeedMPH,Gust SpeedMPH,PrecipitationIn,Events,Conditions,WindDirDegrees,DateUTC
12:25 AM,20.3,13.8,76,30.26,-9999.0,Calm,Calm,-,0.00,,Unknown,0,2013-04-12 04:25:00
1:25 AM,19.9,14.7,80,30.27,-9999.0,Calm,Calm,-,N/A,,Unknown,0,2013-04-12 05:25:00
2:25 AM,17.4,15.1,91,30.27,-9999.0,Calm,Calm,-,N/A,,Unknown,0,2013-04-12 06:25:00
3:25 AM,15.6,13.5,91,30.29,-9999.0,Calm,Calm,-,N/A,,Unknown,0,2013-04-12 07:25:00
4:25 AM,15.4,12.7,89,30.30,-9999.0,Calm,Calm,-,N/A,,Unknown,0,2013-04-12 08:25:00
5:25 AM,15.3,12.6,89,30.30,-9999.0,Calm,Calm,-,N/A,,Unknown,0,2013-04-12 09:25:00
6:25 AM,14.0,11.7,90,30.32,-9999.0,Calm,Calm,-,0.00,,Unknown,0,2013-04-12 10:25:00
7:25 AM,20.7,16.2,83,30.34,-9999.0,Calm,Calm,-,0.01,,Unknown,0,2013-04-12 11:25:00
9:24 AM,31.1,32.0,100,29.53,-9999.0,North,-9999.0,-,N/A,,Unknown,0,2013-04-12 13:24:00
10:25 AM,34.0,13.8,44,30.24,-9999.0,Variable,5.8,-,N/A,,Unknown,0,2013-04-12 14:25:00
11:25 AM,37.2,12.2,36,30.21,-9999.0,Variable,6.9,21.9,N/A,,Unknown,0,2013-04-12 15:25:00
12:25 PM,39.0,11.5,32,30.19,-9999.0,East,6.9,13.8,N/A,,Unknown,80,2013-04-12 16:25:00
1:25 PM,39.0,8.4,28,30.14,-9999.0,ENE,9.2,16.1,N/A,,Unknown,60,2013-04-12 17:25:00
2:25 PM,38.1,8.4,29,30.12,-9999.0,ENE,8.1,16.1,N/A,,Unknown,60,2013-04-12 18:25:00
3:25 PM,35.2,17.4,48,30.14,-9999.0,Variable,6.9,18.4,N/A,,Unknown,0,2013-04-12 19:25:00
4:25 PM,31.6,24.3,74,30.12,-9999.0,East,9.2,18.4,N/A,,Unknown,100,2013-04-12 20:25:00
5:25 PM,-9999,-9999,N/A,30.15,-9999.0,Variable,6.9,-,0.05,,Unknown,0,2013-04-12 21:25:00
6:25 PM,29.5,-9999,N/A,30.13,-9999.0,East,9.2,13.8,0.06,,Unknown,80,2013-04-12 22:25:00
7:25 PM,-9999,-9999,N/A,30.09,-9999.0,Variable,5.8,-,0.02,,Unknown,0,2013-04-12 23:25:00
8:25 PM,-9999,-9999,N/A,30.07,-9999.0,East,6.9,-,N/A,,Unknown,80,2013-04-13 00:25:00
9:25 PM,29.3,-9999,N/A,30.04,-9999.0,East,8.1,16.1,N/A,,Unknown,80,2013-04-13 01:25:00
10:25 PM,-9999,-9999,N/A,30.03,-9999.0,Variable,5.8,-,N/A,,Unknown,0,2013-04-13 02:25:00
11:25 PM,-9999,-9999,N/A,30.01,-9999.0,Variable,5.8,-,0.00,,Unknown,0,2013-04-13 03:25:00